Miscellaneous Local Product
Issued by NWS Hastings, NE

Home | Current Version | Previous Version | Graphics & Text | Print | Product List | Glossary On
Versions: 1 2 3 4 5 6 7 8 9 10 11 12 13 14 15 16 17 18 19 20 21 22 23 24 25 26 27 28 29 30 31 32 33 34 35 36 37 38 39 40 41 42 43 44 45 46 47 48 49 50
313
AXUS43 KGID 162202
MISGRI

GID CWA HOURLY WEATHER ROUNDUP
NATIONAL WEATHER SERVICE HASTINGS NE
400 PM CST SAT DEC 16 2017

NOTE: "FAIR" INDICATES FEW OR NO CLOUDS BELOW 12,000 FEET WITH NO
SIGNIFICANT WEATHER AND/OR OBSTRUCTIONS TO VISIBILITY.

...SOUTH CENTRAL NEBRASKA...

CITY           SKY/WX    TMP DP  RH WIND       PRES   REMARKS
GRAND ISLAND   CLOUDY    48  32  53 NE17      29.86R
KEARNEY        CLOUDY    49  31  49 NE21      29.84R
HASTINGS       CLOUDY    51  25  36 NE17      29.83R
ORD            PTCLDY    46  33  60 N12       29.88R
YORK           CLEAR     50  27  40 NE13      29.85S
AURORA         CLOUDY    50  31  49 NE16      29.86R
LEXINGTON      CLOUDY    49  31  49 NE18G25   29.84S
HOLDREGE       CLOUDY    51  28  41 NE21      29.82R
HEBRON         CLEAR     55  22  27 E9        29.83R

...NEBRASKA PANHANDLE...

CITY           SKY/WX    TMP DP  RH WIND       PRES   REMARKS
CHADRON        CLOUDY    38  27  64 NE12      29.93R WCI  30
ALLIANCE       CLOUDY    35  29  78 NE14      29.88R WCI  26
SCOTTSBLUFF    CLOUDY    39  30  70 NE15      29.88R WCI  31
SIDNEY         SUNNY     40  26  57 NE18      29.84R WCI  31

...WESTERN AND NORTH CENTRAL NEBRASKA...

CITY           SKY/WX    TMP DP  RH WIND       PRES   REMARKS
VALENTINE      CLOUDY    40  32  73 N9        29.94R WCI  34
AINSWORTH      CLOUDY    38  34  82 N9        29.92R WCI  32
ONEILL         CLOUDY    41  34  76 N12       29.92R
BROKEN BOW     CLEAR     44  30  57 N13       29.88R
IMPERIAL       CLOUDY    47  29  49 NE21G28   29.82R
NORTH PLATTE   CLOUDY    44  29  55 NE17G24   29.87R
MCCOOK         CLOUDY    51  27  39 NE23      29.79R

...EASTERN NEBRASKA...

CITY           SKY/WX    TMP DP  RH WIND       PRES   REMARKS
NORFOLK        CLOUDY    45  32  60 N12       29.89R
SO SIOUX CITY  CLEAR     47  31  53 N10       29.89R
TEKAMAH        CLEAR     50  28  42 N9        29.88R
COLUMBUS       CLOUDY    50  31  48 NE10      29.89R
ALBION         PTCLDY    45  32  60 N12       29.90R
OMAHA EPPLEY   PTCLDY    52  28  39 NW6       29.87R
OFFUTT AFB     CLEAR     52  26  35 N5        29.86R
MILLARD        CLEAR     53  28  38 CALM      29.87R
LINCOLN        CLEAR     54  25  32 NE13      29.87R
NEBRASKA CITY  CLEAR     52  26  35 NE3       29.87R
BEATRICE       CLEAR     54  25  32 E3        29.85R
FALLS CITY     CLEAR     55  26  32 SE3       29.85R

...NORTHERN KANSAS...

CITY           SKY/WX    TMP DP  RH WIND       PRES   REMARKS
GOODLAND       SUNNY     52  17  25 NE17G30   29.75R
HILL CITY      SUNNY     53  19  26 E13       29.77R
NORTON         CLEAR     54  16  22 NE18G24   29.78R
PHILLIPSBURG   SUNNY     54  19  26 E13       29.80R
SMITH CENTER   SUNNY     50  21  32 E9        29.81R
HAYS           SUNNY     61  22  22 S13       29.75R
RUSSELL        SUNNY     60  24  25 S15       29.75R
CONCORDIA      CLEAR     54  26  34 SE6       29.81R
SALINA         SUNNY     60  27  28 S13G20    29.81R
TOPEKA         CLEAR     61  27  27 S13       29.85R



USA.gov is the U.S. government's official web portal to all federal, state and local government web resources and services.